Time,TemperatureF,DewpointF,PressureIn,WindDirection,WindDirectionDegrees,WindSpeedMPH,WindSpeedGustMPH,Humidity,HourlyPrecipIn,Conditions,Clouds,dailyrainin,SoftwareType,DateUTC
2013-08-03 10:52:00,71.0,62.0,29.96,SSW,204,2.0,7.0,74,0.00,,,0.04,,2013-08-03 14:52:00,
2013-08-03 11:02:00,71.0,63.0,29.96,SSW,205,3.0,5.0,75,0.00,,,0.04,,2013-08-03 15:02:00,
2013-08-03 11:12:00,71.0,63.0,29.95,SSW,209,3.0,6.0,75,0.00,,,0.04,,2013-08-03 15:12:00,
2013-08-03 11:23:00,71.0,63.0,29.95,SSW,209,2.0,6.0,76,0.00,,,0.04,,2013-08-03 15:23:00,
2013-08-03 11:32:00,73.0,64.0,29.96,SSW,212,4.0,6.0,74,0.00,,,0.04,,2013-08-03 15:32:00,
2013-08-03 11:43:00,73.0,64.0,29.96,SW,215,4.0,6.0,73,0.00,,,0.04,,2013-08-03 15:43:00,
2013-08-03 11:53:00,73.0,64.0,29.96,SSW,213,3.0,7.0,73,0.00,,,0.04,,2013-08-03 15:53:00,
2013-08-03 12:02:00,74.0,64.0,29.96,SW,219,3.0,8.0,72,0.00,,,0.04,,2013-08-03 16:02:00,
2013-08-03 12:13:00,74.0,64.0,29.96,SW,216,4.0,7.0,71,0.00,,,0.04,,2013-08-03 16:13:00,
2013-08-03 12:23:00,74.0,64.0,29.96,SW,215,5.0,8.0,71,0.00,,,0.04,,2013-08-03 16:23:00,
2013-08-03 12:33:00,75.0,65.0,29.96,SW,220,5.0,9.0,72,0.00,,,0.04,,2013-08-03 16:33:00,
2013-08-03 12:43:00,75.0,65.0,29.96,SW,217,4.0,9.0,71,0.00,,,0.04,,2013-08-03 16:43:00,
2013-08-03 12:53:00,77.0,66.0,29.95,SW,219,2.0,10.0,69,0.00,,,0.04,,2013-08-03 16:53:00,
2013-08-03 13:03:00,77.0,66.0,29.95,SW,222,2.0,9.0,68,0.00,,,0.04,,2013-08-03 17:03:00,
2013-08-03 13:12:00,76.0,65.0,29.95,SSW,208,7.0,10.0,70,0.00,,,0.04,,2013-08-03 17:12:00,
2013-08-03 13:22:00,75.0,64.0,29.95,WSW,244,3.0,9.0,69,0.00,,,0.04,,2013-08-03 17:22:00,
2013-08-03 13:32:00,75.0,65.0,29.95,SSW,211,5.0,10.0,71,0.00,,,0.04,,2013-08-03 17:32:00,
2013-08-03 13:43:00,74.0,64.0,29.94,SSW,200,5.0,8.0,72,0.00,,,0.04,,2013-08-03 17:43:00,
2013-08-03 13:52:00,73.0,63.0,29.95,SSW,213,6.0,10.0,71,0.00,,,0.04,,2013-08-03 17:52:00,
2013-08-03 14:02:00,73.0,64.0,29.95,SW,221,4.0,7.0,73,0.00,,,0.04,,2013-08-03 18:02:00,
2013-08-03 14:12:00,73.0,65.0,29.95,SW,219,2.0,6.0,75,0.00,,,0.04,,2013-08-03 18:12:00,
2013-08-03 14:32:00,73.0,65.0,29.95,SW,221,1.0,5.0,76,0.00,,,0.04,,2013-08-03 18:32:00,
2013-08-03 14:43:00,73.0,65.0,29.95,SW,223,1.0,6.0,77,0.00,,,0.04,,2013-08-03 18:43:00,
2013-08-03 14:53:00,72.0,64.0,29.95,WSW,238,1.0,4.0,77,0.00,,,0.04,,2013-08-03 18:53:00,
2013-08-03 15:03:00,71.0,64.0,29.95,SW,219,2.0,8.0,78,0.01,,,0.05,,2013-08-03 19:03:00,
2013-08-03 15:12:00,70.0,64.0,29.95,SW,219,4.0,9.0,80,0.01,,,0.05,,2013-08-03 19:12:00,
2013-08-03 15:22:00,70.0,64.0,29.95,SW,222,2.0,7.0,81,0.01,,,0.05,,2013-08-03 19:22:00,
2013-08-03 15:32:00,70.0,64.0,29.95,SW,222,2.0,6.0,81,0.01,,,0.05,,2013-08-03 19:32:00,
2013-08-03 15:43:00,69.0,63.0,29.94,SW,222,2.0,5.0,81,0.01,,,0.05,,2013-08-03 19:43:00,
2013-08-03 15:52:00,70.0,64.0,29.95,SW,224,1.0,5.0,81,0.00,,,0.05,,2013-08-03 19:52:00,
2013-08-03 16:02:00,70.0,64.0,29.94,WSW,244,1.0,4.0,81,0.00,,,0.05,,2013-08-03 20:02:00,
2013-08-03 16:12:00,70.0,64.0,29.94,SW,225,1.0,5.0,81,0.00,,,0.05,,2013-08-03 20:12:00,
2013-08-03 16:32:00,70.0,64.0,29.93,WSW,240,1.0,5.0,80,0.00,,,0.05,,2013-08-03 20:32:00,
2013-08-03 16:42:00,70.0,63.0,29.93,WSW,238,1.0,7.0,79,0.00,,,0.05,,2013-08-03 20:42:00,
2013-08-03 16:52:00,70.0,63.0,29.92,SSW,211,4.0,7.0,79,0.00,,,0.05,,2013-08-03 20:52:00,
2013-08-03 17:02:00,71.0,64.0,29.92,SW,221,4.0,8.0,78,0.00,,,0.05,,2013-08-03 21:02:00,
2013-08-03 17:12:00,71.0,64.0,29.92,SSW,208,5.0,7.0,78,0.00,,,0.05,,2013-08-03 21:12:00,
2013-08-03 17:22:00,71.0,63.0,29.92,SSW,207,3.0,7.0,77,0.00,,,0.05,,2013-08-03 21:22:00,
2013-08-03 17:32:00,71.0,63.0,29.92,SW,218,5.0,9.0,77,0.00,,,0.05,,2013-08-03 21:32:00,
2013-08-03 17:42:00,72.0,64.0,29.92,SW,228,2.0,8.0,77,0.00,,,0.05,,2013-08-03 21:42:00,
2013-08-03 17:52:00,73.0,65.0,29.91,West,259,3.0,9.0,76,0.00,,,0.05,,2013-08-03 21:52:00,
2013-08-03 18:02:00,74.0,66.0,29.92,SW,216,4.0,8.0,75,0.00,,,0.05,,2013-08-03 22:02:00,
2013-08-03 18:12:00,73.0,65.0,29.92,SW,214,5.0,8.0,77,0.00,,,0.05,,2013-08-03 22:12:00,
2013-08-03 18:22:00,73.0,65.0,29.91,SW,228,4.0,7.0,77,0.00,,,0.05,,2013-08-03 22:22:00,
2013-08-03 18:33:00,73.0,65.0,29.92,SW,214,1.0,6.0,77,0.00,,,0.05,,2013-08-03 22:33:00,
2013-08-03 18:43:00,73.0,65.0,29.92,SW,217,2.0,6.0,77,0.00,,,0.05,,2013-08-03 22:43:00,
2013-08-03 18:52:00,72.0,64.0,29.92,SW,218,2.0,7.0,77,0.00,,,0.05,,2013-08-03 22:52:00,
2013-08-03 19:02:00,73.0,65.0,29.92,SW,220,1.0,7.0,77,0.00,,,0.05,,2013-08-03 23:02:00,
2013-08-03 19:12:00,73.0,65.0,29.91,SW,222,3.0,6.0,76,0.00,,,0.05,,2013-08-03 23:12:00,
2013-08-03 19:22:00,72.0,64.0,29.92,SW,221,2.0,6.0,76,0.00,,,0.05,,2013-08-03 23:22:00,
2013-08-03 19:32:00,72.0,64.0,29.91,SW,228,3.0,9.0,76,0.00,,,0.05,,2013-08-03 23:32:00,
2013-08-03 19:43:00,72.0,64.0,29.91,SW,221,3.0,8.0,77,0.00,,,0.05,,2013-08-03 23:43:00,
2013-08-03 19:52:00,72.0,64.0,29.92,SSW,211,3.0,6.0,77,0.00,,,0.05,,2013-08-03 23:52:00,
2013-08-03 20:02:00,72.0,65.0,29.92,SSW,205,0.0,3.0,78,0.00,,,0.05,,2013-08-04 00:02:00,
2013-08-03 20:12:00,72.0,65.0,29.93,SSW,204,0.0,4.0,78,0.00,,,0.05,,2013-08-04 00:12:00,
2013-08-03 20:22:00,71.0,64.0,29.92,SSW,204,2.0,4.0,78,0.00,,,0.05,,2013-08-04 00:22:00,
2013-08-03 20:32:00,71.0,64.0,29.92,SSW,212,4.0,7.0,79,0.00,,,0.05,,2013-08-04 00:32:00,
2013-08-03 20:42:00,70.0,63.0,29.92,SSW,213,2.0,7.0,79,0.00,,,0.05,,2013-08-04 00:42:00,
2013-08-03 20:52:00,70.0,64.0,29.93,SSW,211,1.0,6.0,80,0.00,,,0.05,,2013-08-04 00:52:00,
2013-08-03 21:02:00,70.0,64.0,29.93,SSW,211,2.0,5.0,81,0.00,,,0.05,,2013-08-04 01:02:00,
2013-08-03 21:12:00,69.0,63.0,29.93,SSW,211,2.0,6.0,81,0.00,,,0.05,,2013-08-04 01:12:00,
2013-08-03 21:22:00,69.0,63.0,29.93,SSW,211,0.0,5.0,81,0.00,,,0.05,,2013-08-04 01:22:00,
2013-08-03 21:32:00,69.0,63.0,29.93,SSW,211,0.0,2.0,82,0.00,,,0.05,,2013-08-04 01:32:00,
2013-08-03 21:42:00,69.0,64.0,29.94,SSW,211,3.0,5.0,83,0.00,,,0.05,,2013-08-04 01:42:00,
2013-08-03 21:52:00,69.0,64.0,29.94,SSW,211,2.0,5.0,83,0.00,,,0.05,,2013-08-04 01:52:00,
2013-08-03 22:03:00,69.0,64.0,29.94,SSW,209,3.0,5.0,83,0.00,,,0.05,,2013-08-04 02:03:00,
2013-08-03 22:12:00,69.0,64.0,29.94,SSW,209,2.0,5.0,83,0.00,,,0.05,,2013-08-04 02:12:00,
2013-08-03 22:22:00,69.0,64.0,29.94,SSW,209,2.0,5.0,83,0.00,,,0.05,,2013-08-04 02:22:00,
2013-08-03 22:32:00,69.0,64.0,29.94,SSW,209,2.0,3.0,83,0.00,,,0.05,,2013-08-04 02:32:00,
2013-08-03 22:42:00,69.0,64.0,29.94,SSW,209,1.0,3.0,83,0.00,,,0.05,,2013-08-04 02:42:00,
2013-08-03 22:52:00,68.0,63.0,29.93,SSW,209,1.0,3.0,83,0.00,,,0.05,,2013-08-04 02:52:00,
2013-08-03 23:02:00,67.0,62.0,29.94,SSW,209,0.0,2.0,83,0.00,,,0.05,,2013-08-04 03:02:00,
2013-08-03 23:12:00,67.0,62.0,29.94,SSW,209,0.0,2.0,83,0.00,,,0.05,,2013-08-04 03:12:00,
2013-08-03 23:22:00,67.0,62.0,29.94,SSW,209,0.0,2.0,83,0.00,,,0.05,,2013-08-04 03:22:00,
2013-08-03 23:32:00,67.0,62.0,29.94,SSW,209,0.0,2.0,83,0.00,,,0.05,,2013-08-04 03:32:00,
2013-08-03 23:42:00,67.0,62.0,29.94,SSW,209,0.0,2.0,83,0.00,,,0.05,,2013-08-04 03:42:00,
2013-08-03 23:52:00,67.0,62.0,29.94,SSW,209,0.0,2.0,83,0.00,,,0.05,,2013-08-04 03:52:00,